Home > Weather > Espoo > Past weeks

Flag for Finland Weather for the Past 2 Weeks in Espoo, Finland

Now
43 °F

Clear.


Feels Like: 41 °F
Forecast: 38 / 66 °F
Wind: 3 mph from Southwest

Location: Helsinki-Vantaa

Current Time: May 4, 2016 at 1:14:17 AM

Latest Report: May 4, 2016 at 12:20 AM


Visibility: 10 mi

Pressure: 30.09 "Hg

Humidity: 81%

Dew Point: 37 °F

Location of EspooLocation

Historic Weather in Espoo — Graph

°F

Espoo Temperature Yesterday

Maximum temperature yesterday: 64 °F (at 3:50 PM)
Minimum temperature yesterday: 34 °F (at 4:50 AM)
Average temperature yesterday: 51 °F

High & Low Weather Summary for the Past Weeks

 TemperatureHumidityPressure
High64 °F (May 3, 3:50 PM)100% (Apr 19, 7:50 AM)30.36 "Hg (Apr 19, 7:50 AM)
Low28 °F (Apr 24, 4:20 AM)29% (May 2, 11:50 AM)29.42 "Hg (Apr 25, 4:50 AM)
Average43 °F76%29.90 "Hg
* Reported Apr 19 12:20 AM — May 4 12:20 AM, Espoo, Weather by CustomWeather, © 2016

Note: Actual official high and low records may vary slightly from our data, if they occured in-between our weather recording intervals... More about our weather records

Advertising

Espoo Weather History for the Previous 24 Hours

Scroll right to see more
 ConditionsComfort  
Time TempWeatherWind HumidityBarometerVisibility
12:20 AM
Wed, May 4
43 °FClear.3 mph81%30.09 "Hg10 mi
11:50 PM
Tue, May 3
46 °FClear.3 mph76%30.09 "Hg10 mi
11:20 PM48 °FClear.5 mph71%30.09 "Hg10 mi
10:50 PM52 °FClear.6 mph62%30.09 "Hg10 mi
10:20 PM52 °FPassing clouds.6 mph62%30.09 "HgN/A
9:50 PM52 °FSunny.7 mph62%30.09 "Hg10 mi
9:20 PM55 °FSunny.8 mph55%30.09 "Hg10 mi
8:50 PM55 °FSunny.9 mph55%30.09 "Hg10 mi
8:20 PM57 °FSunny.7 mph51%30.09 "Hg10 mi
7:50 PM59 °FSunny.9 mph45%30.09 "Hg10 mi
7:20 PM61 °FSunny.10 mph42%30.07 "Hg10 mi
6:50 PM61 °FSunny.12 mph39%30.09 "Hg10 mi
6:20 PM63 °FSunny.12 mph39%30.09 "Hg10 mi
5:50 PM63 °FSunny.9 mph37%30.09 "Hg10 mi
5:20 PM63 °FSunny.7 mph37%30.09 "Hg10 mi
4:50 PM63 °FPassing clouds.10 mph34%30.09 "HgN/A
4:20 PM63 °FPassing clouds.9 mph37%30.09 "HgN/A
3:50 PM64 °FPassing clouds.8 mph34%30.09 "HgN/A
3:20 PM63 °FPassing clouds.9 mph32%30.09 "HgN/A
2:20 PM63 °FPassing clouds.8 mph34%30.12 "HgN/A
1:50 PM63 °FPassing clouds.8 mph34%30.12 "HgN/A
1:20 PM63 °FPassing clouds.8 mph34%30.12 "HgN/A
12:50 PM61 °FPassing clouds.7 mph36%30.12 "HgN/A
12:20 PM61 °FSunny.3 mph36%30.12 "Hg10 mi
11:50 AM61 °FSunny.3 mph34%30.15 "Hg10 mi
11:20 AM59 °FSunny.2 mph31%30.15 "Hg10 mi
10:50 AM59 °FSunny.1 mph31%30.15 "Hg10 mi
10:20 AM57 °FSunny.2 mph31%30.15 "Hg10 mi
9:50 AM57 °FSunny.1 mph36%30.15 "Hg10 mi
9:20 AM55 °FSunny.2 mph44%30.15 "Hg10 mi
8:20 AM48 °FSunny.3 mph66%30.15 "Hg10 mi
7:50 AM43 °FSunny.2 mph76%30.15 "Hg10 mi
7:20 AM39 °FSunny.2 mph87%30.15 "Hg10 mi
6:50 AM37 °FSunny.1 mph87%30.15 "Hg10 mi
6:20 AM34 °FSunny.2 mph93%30.15 "Hg10 mi
5:50 AM34 °FClear.3 mph93%30.15 "Hg10 mi
5:20 AM34 °FClear.3 mph93%30.15 "Hg10 mi
4:50 AM34 °FClear.2 mph93%30.15 "Hg10 mi
4:20 AM36 °FClear.1 mph93%30.15 "Hg10 mi
3:20 AM36 °FClear.1 mph93%30.15 "Hg10 mi
2:50 AM37 °FClear.1 mph93%30.15 "Hg10 mi
2:20 AM36 °FClear.1 mph100%30.18 "Hg10 mi
1:50 AM39 °FClear.1 mph87%30.18 "Hg10 mi
1:20 AM39 °FClear.2 mph87%30.18 "Hg10 mi
Weather by CustomWeather, © 2016

See weather overviewHow to use our weather pages